Simultaneous Nadir Overpasses (SNOs) Predictions

Prediction of SNOs between LANDSAT-8 and NOAA-19 Satellite Orbit:

Table of predicted SNOs for the next 14.0 days since TLE Epoch: 6/24/2014
Index Date (LANDSAT-8) Time (LANDSAT-8) Lat,Lon (LANDSAT-8) SZA (LANDSAT-8 ) Date (NOAA-19) Time (NOAA-19) Lat,Lon (NOAA-19) SZA (NOAA-19 ) Distance(km) Time Diff (sec)
1 06/26/2014 07:28:26 -72.01,-112.83 131.45 06/26/2014 07:28:02 -72.00,-112.85 131.44 0.89 24
2 06/26/2014 08:17:53 71.91, 54.65 48.47 06/26/2014 08:19:05 71.91, 54.56 48.47 3.26 72
3 06/28/2014 12:12:43 -72.02, 176.12 131.34 06/28/2014 12:11:53 -72.02, 176.17 131.33 1.97 50
4 06/28/2014 13:02:10 71.92, -16.40 48.57 06/28/2014 13:02:55 71.91, -16.38 48.56 1.21 45
5 06/30/2014 16:56:59 -72.07, 105.15 131.17 06/30/2014 16:55:45 -72.10, 105.09 131.13 3.43 74
6 06/30/2014 17:46:26 71.97, -87.38 48.74 06/30/2014 17:46:46 71.97, -87.42 48.74 1.63 20
7 07/02/2014 22:30:42 72.02,-158.36 48.95 07/02/2014 22:30:37 72.02,-158.46 48.95 3.32 5
8 07/02/2014 23:20:18 -71.59, 8.53 131.48 07/02/2014 23:21:29 -71.58, 9.63 131.50 38.46 71
9 07/05/2014 03:14:59 72.01, 130.55 49.12 07/05/2014 03:14:27 72.03, 130.60 49.14 2.56 32
10 07/05/2014 04:04:29 -71.90, -62.01 130.98 07/05/2014 04:05:26 -71.91, -61.93 130.97 2.85 57
11 07/07/2014 07:59:14 72.10, 59.64 49.43 07/07/2014 07:58:18 72.08, 59.56 49.42 3.28 56
12 07/07/2014 08:48:44 -71.99,-132.92 130.67 07/07/2014 08:49:18 -71.98,-133.01 130.68 3.27 34




NCC Satellite Simultaneous Nadir Overpasses (SNOs) Prediction Service
